Wind_Speed
13 15 14 13 13 16 6 1 2 2 0 2 3 6 5 2 1 2 2 1 1 2 2 1 1 2 3 4 6 7 8 9 9 9 8 7 7 7 8 8 8 9 10 10 10 10 11 11 11
11 12 11 11 13 9 1 4 4 2 1 1 1 2 3 3 3 4 2 2 1 1 1 1 2 3 4 5 6 7 8 9 9 9 9 8 8 8 8 8 8 9 10 10 10 10 10 10 10
8 8 8 8 9 5 0 6 4 4 2 3 3 2 2 2 3 3 3 2 2 2 3 3 4 5 6 6 7 8 9 10 10 10 10 10 10 9 9 9 9 9 10 11 11 11 11 11 11
4 6 6 7 3 2 5 6 4 6 5 5 6 4 4 4 4 4 3 3 3 4 4 5 5 6 7 8 8 9 10 11 12 12 12 12 12 11 11 11 11 11 12 12 12 11 11 11 11
3 4 4 6 3 2 7 7 4 6 6 8 8 7 7 6 6 5 4 4 4 4 5 5 6 7 8 9 10 11 12 13 14 15 15 14 14 14 14 14 14 14 14 14 13 13 12 12 13
5 5 4 10 9 4 7 8 6 8 8 10 10 8 8 8 7 6 5 5 5 5 5 6 7 8 10 11 12 14 15 16 17 17 18 17 17 16 16 16 17 17 16 16 16 15 15 15 15
8 7 4 9 14 7 7 10 10 8 8 7 12 10 10 9 8 7 6 6 6 6 7 8 10 11 13 14 15 16 17 18 19 20 20 20 20 20 20 20 20 20 19 19 19 18 18 18 18
10 8 6 4 15 9 9 9 12 12 11 9 12 15 11 10 9 8 7 8 9 8 10 11 12 14 15 16 17 18 19 20 21 22 23 23 23 23 23 24 24 24 23 22 22 22 22 22 22
12 10 6 5 13 13 11 9 12 14 15 14 13 18 14 11 10 9 9 10 12 13 13 14 15 16 17 18 20 20 21 22 23 24 25 25 26 26 27 27 28 27 27 26 27 27 26 26 26
15 14 8 11 14 12 11 10 12 13 15 15 18 20 14 12 12 12 12 13 15 17 18 18 18 20 20 21 22 22 23 24 24 25 26 27 28 28 29 29 30 31 30 30 30 30 30 30 30
19 18 16 17 18 19 16 12 14 14 17 21 24 22 13 10 13 15 16 17 18 20 21 22 22 23 24 24 25 26 26 26 26 27 27 28 29 29 29 30 30 31 32 32 32 32 32 32 33
22 23 24 25 23 24 23 18 15 14 20 26 30 29 19 12 16 19 21 22 22 23 25 25 26 27 28 29 29 30 29 29 28 28 29 29 30 30 30 31 31 31 31 31 31 31 31 31 32
23 23 26 26 26 25 24 22 20 18 20 27 31 32 26 19 21 24 25 26 25 26 27 29 30 31 32 33 33 32 32 31 31 31 31 31 31 31 31 30 30 30 30 30 29 30 30 30 31
23 25 27 26 25 25 24 24 22 21 22 28 32 31 30 25 25 27 29 29 29 31 32 33 34 35 36 36 35 34 33 32 32 32 32 31 31 31 30 29 29 28 29 29 29 29 29 30 30
23 25 25 24 24 23 24 25 22 20 23 29 31 32 32 29 28 30 33 33 35 35 37 36 37 38 38 38 36 35 34 33 32 32 31 30 30 30 29 28 27 26 26 26 26 26 27 28 29
20 22 23 21 19 21 24 25 19 19 27 31 32 31 32 33 33 35 38 39 40 39 40 39 41 41 39 38 36 35 34 33 32 31 30 29 28 28 27 26 25 24 24 23 24 24 25 26 28
14 17 17 15 16 23 25 24 17 24 29 31 32 31 31 35 36 40 42 43 43 44 43 41 43 42 39 37 35 34 32 33 31 30 29 28 27 26 25 24 23 22 21 20 21 22 23 25 26
8 12 14 12 17 26 25 22 18 25 28 31 32 33 35 39 41 43 44 45 45 46 45 42 42 40 39 38 36 35 32 31 30 28 27 26 26 24 23 21 19 19 18 19 19 20 22 23 25
16 15 12 12 19 27 27 24 22 26 29 31 35 37 38 42 43 44 45 44 44 44 45 43 40 40 39 38 37 35 33 31 29 27 25 25 24 22 21 20 19 18 18 19 20 21 22 24 26
9 11 14 16 21 25 28 28 25 26 30 36 38 39 41 43 42 43 43 43 43 42 39 37 35 35 37 37 36 35 33 31 27 26 25 24 23 22 21 20 20 20 20 20 21 21 22 24 26
6 10 13 18 21 22 21 20 18 20 26 32 34 34 36 39 41 42 41 39 38 37 37 35 35 36 37 37 36 34 33 31 30 27 25 23 23 22 22 22 22 22 22 22 23 23 23 24 27
9 13 17 19 20 20 17 18 19 22 26 30 32 32 34 34 37 38 41 41 38 37 36 35 37 36 36 37 35 35 33 30 29 27 25 24 24 24 25 25 25 24 24 25 25 25 25 26 27
12 15 16 15 14 14 13 17 20 24 27 30 30 30 33 34 36 37 37 37 39 38 37 34 34 35 36 36 36 37 34 30 28 26 26 26 26 26 27 28 28 28 28 28 28 28 28 28 28
11 9 6 9 15 20 21 21 22 24 25 29 30 31 33 34 34 34 35 36 37 36 37 36 36 36 37 37 37 37 35 32 30 28 28 29 30 30 30 31 31 32 31 31 30 29 29 29 29
12 10 11 16 22 26 19 13 17 20 22 27 30 31 32 33 34 35 35 36 38 39 39 40 40 39 40 40 40 40 38 36 35 34 33 33 34 34 35 34 34 34 34 34 33 32 31 31 31
10 9 11 16 18 22 24 21 21 24 27 29 29 30 32 34 35 37 38 39 40 41 42 43 44 44 44 45 45 45 44 42 41 40 39 39 39 39 39 38 37 37 36 36 35 34 33 32 32
10 9 10 15 14 14 17 26 29 30 30 28 28 32 35 37 39 40 42 43 44 46 47 48 49 50 50 51 51 50 50 50 49 48 47 46 46 44 43 43 41 40 38 38 37 36 35 34 34
14 15 14 15 16 17 15 26 34 34 32 31 33 37 39 40 42 44 46 47 48 50 52 53 54 55 55 56 56 57 56 56 56 56 55 54 52 50 49 47 46 44 42 40 39 38 37 36 35
13 15 18 19 19 21 21 28 32 35 35 38 40 41 43 45 47 49 50 52 53 54 55 56 57 58 59 60 61 61 61 61 60 60 60 59 58 57 55 53 50 48 45 44 42 40 39 37 35
11 16 20 21 22 23 25 31 34 36 38 40 42 45 48 50 51 53 55 56 56 57 58 60 61 62 63 63 64 65 65 65 65 65 64 63 62 61 60 58 55 51 49 47 45 43 41 39 37
Wind_Direction
85 84 88 92 85 77 86 143 234 283 115 131 174 194 209 219 255 169 177 168 158 140 136 118 4 338 335 335 336 337 339 342 345 346 349 353 356 359 2 4 6 5 5 5 4 2 1 1 1
94 93 99 96 85 100 145 281 301 328 16 70 157 194 186 175 176 163 173 176 199 199 211 275 305 312 315 318 321 323 325 328 331 333 333 335 337 340 344 348 350 352 353 354 355 355 353 352 352
110 106 101 85 84 106 327 313 343 318 311 294 267 265 220 195 180 176 205 216 252 277 285 293 301 307 312 315 317 318 320 321 322 324 324 323 323 325 327 331 334 337 340 343 344 344 345 345 344
129 112 103 67 71 63 301 311 358 315 307 286 277 270 261 249 233 235 239 249 269 286 295 301 308 315 319 319 318 319 319 317 317 317 317 317 317 317 319 321 324 326 328 330 332 333 333 333 333
178 141 75 351 277 251 286 291 289 285 305 291 288 283 274 265 259 254 256 261 273 289 299 308 318 324 325 323 321 319 317 315 313 312 312 312 311 311 311 313 314 316 318 320 321 322 323 323 324
215 187 70 295 270 242 270 284 276 276 299 298 288 286 282 274 269 267 266 268 276 292 303 313 320 323 322 320 317 314 312 311 309 308 307 306 305 304 304 305 307 308 309 311 312 312 313 313 314
234 219 169 290 286 239 246 281 278 282 295 287 290 289 283 276 271 270 271 275 283 294 302 309 313 314 313 312 310 309 308 306 305 304 303 302 300 299 299 299 299 299 300 300 301 301 302 303 303
239 227 188 279 287 270 259 267 275 277 275 276 287 284 273 270 267 269 275 285 293 298 304 307 308 310 310 309 307 306 304 303 301 300 298 297 296 295 295 294 293 293 293 292 292 293 293 294 294
240 224 196 259 268 257 247 248 262 271 274 282 275 274 270 264 265 271 280 291 299 303 306 308 311 311 311 311 310 308 305 302 299 297 294 292 291 290 290 291 290 290 290 289 289 288 288 287 287
240 223 201 256 249 252 249 242 251 263 265 269 260 252 244 256 269 278 286 295 303 307 309 311 313 314 314 314 313 310 307 303 299 296 293 291 289 288 287 287 288 288 288 287 287 286 286 285 284
238 227 215 236 238 237 249 263 263 266 270 265 257 239 221 254 277 285 289 295 302 307 309 312 315 316 315 313 313 310 307 303 299 296 293 291 289 288 287 285 284 285 287 286 286 286 285 287 286
244 236 230 237 241 244 247 248 249 257 262 269 271 270 266 268 283 284 288 292 298 304 307 310 312 313 313 312 311 309 307 303 298 296 294 291 289 287 286 286 285 284 284 285 286 286 286 289 289
248 246 243 246 250 252 251 248 245 248 259 271 276 283 284 289 289 287 287 290 296 299 303 306 308 308 308 309 308 307 305 302 299 297 294 291 289 288 287 286 285 285 285 285 285 286 288 289 290
254 248 247 249 253 255 256 255 250 250 260 269 274 280 285 287 286 284 285 288 294 298 299 301 302 303 304 304 304 304 303 301 299 297 294 291 288 288 287 285 284 285 285 285 286 286 288 289 290
262 261 259 255 255 259 260 258 255 257 257 262 269 276 279 279 278 282 286 290 293 295 295 296 296 298 299 300 300 300 299 299 297 294 291 289 288 287 285 284 284 285 285 286 286 287 289 291 292
271 267 262 259 259 260 258 258 256 258 255 257 262 267 273 277 279 283 286 288 289 291 292 293 292 292 294 295 295 296 297 297 295 291 288 287 285 283 282 282 282 283 284 285 287 289 291 293 293
287 287 282 268 256 250 254 260 254 256 255 259 264 267 271 275 278 280 282 283 285 287 286 286 287 288 290 289 291 294 294 294 292 289 287 285 281 279 278 278 280 281 283 285 289 292 294 296 296
279 276 280 272 248 246 252 256 248 256 258 261 265 270 274 276 277 276 276 277 278 281 283 282 281 284 286 288 289 292 291 291 287 283 285 282 278 274 274 274 277 279 283 287 291 296 299 301 302
231 219 214 225 235 248 254 257 249 252 261 263 267 270 272 275 275 273 274 272 275 277 277 277 277 281 284 286 286 290 291 292 287 282 281 277 272 269 269 271 274 277 281 286 291 296 301 304 306
254 252 239 242 248 256 263 266 262 256 262 266 269 273 275 276 275 274 274 272 271 273 277 275 275 279 282 286 287 290 291 291 286 283 279 272 267 264 265 268 271 274 278 284 290 295 301 305 308
264 254 247 243 247 256 273 285 282 266 262 267 272 275 278 276 278 278 279 279 272 275 280 282 278 282 285 288 289 291 291 289 286 283 274 267 264 264 265 268 270 273 277 282 287 292 298 303 307
266 258 255 259 262 265 266 273 271 266 259 262 271 280 281 282 281 277 279 281 281 282 283 284 284 286 289 291 291 289 289 290 287 281 274 266 262 264 267 269 272 275 278 281 285 289 294 298 303
276 273 273 275 277 272 263 262 262 262 263 267 273 281 288 287 286 284 281 284 285 287 288 287 290 293 292 292 292 292 292 290 286 281 275 271 268 267 270 272 274 277 278 280 283 286 290 295 299
307 303 290 287 281 267 253 240 247 261 273 279 285 289 290 290 289 287 286 286 287 287 289 290 290 291 291 292 292 293 292 290 287 283 276 274 273 271 271 274 277 278 278 279 279 282 286 290 295
300 301 301 304 309 312 310 257 249 266 281 286 290 291 292 293 292 291 290 288 288 287 289 289 288 289 290 290 290 290 290 288 286 283 281 278 276 274 275 276 277 278 277 277 277 279 282 286 291
314 309 309 307 308 317 320 312 286 278 278 282 287 293 296 296 296 294 293 292 290 289 289 288 288 288 287 287 287 286 286 285 282 280 279 278 277 276 276 276 277 277 276 275 275 276 278 282 286
339 325 304 300 305 305 305 297 287 284 278 275 283 294 298 298 297 296 294 292 291 290 288 287 286 286 285 284 284 283 282 281 280 278 277 276 275 275 275 274 273 273 274 274 274 275 276 278 282
325 329 324 317 310 302 297 292 294 300 297 296 298 299 300 299 297 295 293 292 290 288 287 286 285 284 283 282 282 281 280 278 277 276 276 275 273 272 271 270 270 270 270 271 272 272 273 275 278
304 315 314 311 307 301 298 292 292 297 296 298 299 299 299 298 296 294 293 292 291 289 287 286 284 283 281 280 279 278 277 276 275 275 274 273 272 271 270 268 267 266 268 270 270 269 269 272 274
301 315 317 316 313 309 304 295 295 296 296 297 298 298 297 296 295 294 293 292 291 289 287 286 284 282 281 280 278 277 275 274 274 273 272 271 271 270 269 267 266 265 264 265 267 267 266 268 270
Height
5919 5919 5919 5920 5920 5920 5923 5922 5920 5918 5917 5916 5916 5915 5913 5915 5916 5918 5916 5916 5916 5916 5917 5917 5917 5917 5917 5917 5917 5916 5915 5915 5914 5913 5912 5911 5910 5909 5908 5907 5906 5905 5904 5903 5902 5901 5900 5899 5898
5920 5921 5922 5921 5920 5922 5924 5922 5920 5919 5918 5917 5916 5915 5915 5915 5915 5915 5915 5916 5916 5916 5917 5917 5917 5917 5917 5916 5916 5915 5915 5914 5913 5913 5912 5911 5910 5909 5908 5907 5906 5905 5904 5903 5902 5901 5900 5899 5898
5921 5922 5923 5921 5921 5923 5923 5922 5921 5919 5918 5917 5917 5916 5916 5916 5916 5915 5915 5916 5916 5916 5916 5916 5916 5916 5916 5916 5915 5915 5914 5913 5913 5912 5911 5910 5909 5908 5908 5907 5906 5905 5904 5903 5902 5901 5900 5899 5898
5922 5923 5924 5923 5923 5923 5923 5923 5922 5920 5919 5917 5917 5917 5916 5916 5916 5915 5915 5915 5915 5915 5915 5915 5915 5915 5915 5914 5914 5914 5913 5913 5912 5911 5910 5909 5909 5908 5907 5906 5905 5904 5903 5902 5901 5900 5899 5898 5898
5921 5923 5923 5924 5923 5924 5923 5923 5921 5919 5919 5917 5916 5917 5916 5916 5915 5915 5914 5914 5914 5914 5914 5914 5914 5914 5913 5913 5913 5912 5912 5911 5910 5910 5909 5908 5907 5906 5905 5904 5903 5902 5901 5901 5900 5899 5898 5897 5897
5921 5922 5923 5924 5922 5922 5922 5922 5920 5918 5918 5917 5915 5916 5915 5915 5914 5914 5914 5914 5913 5914 5913 5913 5913 5912 5912 5912 5911 5911 5910 5909 5908 5908 5907 5906 5905 5904 5903 5902 5901 5900 5899 5899 5898 5897 5896 5896 5895
5920 5920 5921 5924 5921 5919 5920 5920 5919 5917 5917 5917 5914 5915 5914 5914 5913 5913 5913 5912 5912 5913 5912 5912 5911 5911 5910 5910 5909 5908 5907 5907 5906 5905 5904 5903 5902 5901 5900 5899 5898 5897 5896 5896 5895 5894 5894 5893 5892
5917 5920 5920 5925 5922 5918 5919 5920 5918 5918 5916 5916 5914 5912 5913 5912 5912 5912 5911 5911 5911 5911 5911 5910 5909 5909 5908 5907 5906 5905 5904 5903 5902 5901 5900 5899 5898 5897 5896 5895 5894 5893 5892 5891 5891 5890 5890 5889 5888
5915 5918 5919 5923 5921 5918 5917 5919 5917 5916 5915 5915 5913 5909 5910 5909 5910 5910 5909 5909 5908 5908 5908 5908 5907 5906 5905 5904 5903 5902 5900 5899 5898 5897 5896 5895 5894 5893 5892 5891 5889 5888 5887 5887 5886 5885 5885 5884 5884
5912 5914 5917 5919 5917 5915 5914 5915 5916 5915 5910 5909 5907 5903 5904 5906 5907 5907 5907 5906 5906 5905 5904 5904 5903 5902 5901 5900 5899 5897 5896 5894 5893 5892 5891 5890 5889 5888 5887 5886 5884 5882 5882 5881 5880 5879 5879 5878 5878
5907 5909 5911 5912 5913 5912 5912 5914 5914 5914 5910 5905 5901 5895 5896 5901 5903 5903 5903 5903 5902 5901 5900 5899 5899 5897 5896 5895 5894 5892 5891 5889 5888 5886 5885 5884 5882 5882 5881 5880 5879 5877 5875 5874 5873 5873 5872 5871 5871
5902 5904 5905 5906 5907 5908 5909 5911 5912 5912 5909 5903 5899 5895 5892 5894 5898 5898 5898 5899 5898 5897 5895 5894 5894 5892 5890 5889 5887 5886 5884 5883 5881 5880 5879 5877 5876 5875 5874 5873 5872 5871 5870 5869 5868 5867 5866 5865 5864
5897 5899 5900 5901 5903 5904 5905 5906 5907 5908 5905 5900 5896 5893 5890 5889 5893 5893 5893 5893 5893 5891 5890 5889 5888 5886 5884 5883 5881 5879 5877 5876 5874 5873 5872 5870 5869 5868 5867 5866 5865 5864 5863 5862 5862 5861 5859 5859 5857
5892 5892 5894 5896 5898 5899 5900 5901 5902 5904 5902 5898 5893 5891 5888 5885 5887 5886 5886 5885 5885 5885 5883 5882 5881 5879 5878 5876 5874 5872 5870 5869 5868 5866 5865 5864 5863 5861 5860 5859 5858 5858 5857 5856 5855 5854 5853 5852 5851
5887 5888 5889 5891 5893 5894 5896 5897 5899 5901 5900 5895 5892 5890 5887 5884 5883 5881 5878 5878 5878 5878 5875 5873 5872 5871 5870 5869 5867 5865 5864 5863 5862 5860 5858 5857 5856 5855 5854 5853 5852 5852 5851 5850 5849 5848 5847 5846 5844
5882 5883 5884 5887 5889 5891 5893 5893 5895 5896 5894 5890 5887 5886 5884 5882 5880 5877 5875 5874 5871 5869 5868 5867 5863 5862 5862 5860 5859 5858 5856 5855 5854 5853 5852 5851 5849 5848 5848 5847 5846 5845 5845 5844 5843 5842 5841 5840 5838
5879 5880 5881 5885 5887 5888 5887 5888 5891 5889 5886 5884 5883 5880 5880 5879 5877 5874 5870 5868 5864 5860 5859 5858 5854 5852 5852 5850 5850 5850 5849 5847 5846 5846 5845 5844 5843 5842 5842 5841 5840 5840 5839 5838 5837 5836 5835 5834 5832
5880 5883 5884 5884 5885 5881 5881 5882 5885 5883 5880 5879 5877 5876 5875 5873 5871 5867 5863 5859 5855 5851 5847 5845 5845 5842 5842 5842 5842 5843 5841 5839 5839 5839 5839 5838 5837 5837 5836 5836 5835 5835 5834 5833 5832 5831 5829 5828 5826
5873 5876 5878 5882 5878 5874 5874 5876 5877 5876 5873 5872 5871 5870 5868 5865 5862 5856 5851 5846 5844 5840 5839 5835 5832 5834 5835 5835 5834 5835 5835 5833 5833 5832 5832 5832 5832 5831 5831 5830 5830 5830 5829 5828 5827 5825 5824 5822 5819
5871 5873 5874 5875 5872 5870 5869 5870 5871 5871 5869 5866 5865 5863 5860 5855 5849 5842 5841 5837 5833 5832 5829 5821 5822 5825 5828 5827 5825 5827 5827 5827 5826 5825 5826 5826 5826 5825 5825 5825 5825 5824 5824 5823 5821 5820 5818 5816 5813
5869 5869 5868 5867 5865 5865 5865 5865 5865 5864 5862 5858 5856 5854 5852 5849 5846 5839 5832 5825 5821 5823 5819 5815 5818 5819 5820 5820 5819 5820 5819 5819 5819 5819 5818 5819 5819 5819 5819 5819 5819 5818 5818 5817 5815 5814 5812 5810 5807
5865 5863 5862 5862 5861 5861 5863 5862 5859 5856 5853 5851 5849 5846 5843 5842 5839 5833 5829 5821 5819 5816 5814 5816 5814 5815 5815 5814 5814 5814 5813 5813 5812 5811 5812 5812 5812 5813 5813 5813 5812 5812 5811 5810 5809 5807 5805 5803 5801
5861 5859 5858 5857 5856 5856 5858 5858 5855 5850 5848 5845 5843 5841 5838 5836 5833 5829 5825 5820 5818 5815 5812 5810 5809 5810 5809 5809 5808 5807 5806 5805 5805 5805 5805 5805 5805 5806 5806 5806 5805 5804 5804 5803 5802 5800 5798 5796 5795
5858 5856 5855 5854 5852 5850 5848 5847 5847 5845 5844 5841 5839 5837 5835 5832 5828 5825 5821 5818 5815 5812 5809 5807 5804 5804 5803 5802 5801 5800 5799 5798 5797 5798 5798 5798 5798 5798 5798 5798 5798 5796 5796 5795 5794 5793 5791 5790 5787
5856 5855 5854 5852 5848 5842 5839 5839 5841 5840 5839 5836 5834 5832 5830 5826 5823 5820 5817 5814 5810 5808 5805 5802 5799 5797 5795 5794 5793 5792 5791 5790 5789 5789 5790 5790 5790 5789 5789 5789 5789 5788 5788 5787 5786 5785 5784 5782 5780
5855 5854 5854 5851 5848 5846 5839 5839 5838 5836 5834 5831 5829 5827 5824 5821 5817 5814 5811 5807 5803 5800 5797 5794 5791 5789 5787 5785 5783 5782 5781 5780 5780 5780 5780 5780 5780 5780 5780 5780 5779 5779 5778 5778 5777 5777 5776 5774 5773
5854 5853 5852 5849 5847 5846 5845 5838 5832 5828 5824 5821 5821 5821 5818 5814 5810 5806 5802 5799 5795 5791 5787 5784 5781 5778 5776 5774 5772 5771 5770 5768 5768 5768 5767 5768 5768 5769 5769 5769 5769 5769 5768 5768 5768 5767 5767 5766 5765
5854 5852 5850 5847 5844 5842 5842 5835 5828 5823 5818 5816 5815 5813 5810 5806 5801 5797 5792 5788 5784 5780 5776 5772 5769 5766 5763 5760 5758 5756 5755 5755 5754 5753 5753 5753 5754 5755 5756 5757 5757 5758 5758 5758 5758 5758 5758 5757 5756
5852 5851 5848 5845 5843 5839 5836 5833 5826 5822 5817 5812 5808 5805 5802 5797 5792 5787 5781 5776 5772 5767 5763 5759 5755 5752 5748 5745 5743 5741 5739 5738 5737 5736 5736 5737 5738 5739 5740 5742 5743 5745 5746 5747 5747 5747 5748 5747 5747
5848 5847 5845 5842 5839 5836 5832 5829 5821 5816 5811 5807 5802 5796 5791 5786 5781 5775 5769 5764 5758 5753 5748 5744 5739 5735 5732 5728 5726 5723 5721 5720 5719 5718 5718 5718 5719 5721 5723 5725 5728 5730 5732 5734 5735 5736 5737 5737 5737